STARLINK-3931 (52548 NORAD) Tracking and Keplerian Element Data

This shows tracking and keplerian element data for the satellite.

Feedback or suggestion? Click here.




ElementValue
Catalog52548
NameSTARLINK-3931
Epoch Orbit971
Epoch Day192.91667824
Epoch Year2022
RAAN10.163
Inclination53.2176
Eccentricity0.0001384
Argument of Perigee92.2899
Mean Anonmoly142.9052
Mean Motion15.13983435
Decay Rate-0.0071742
L11 52548U 22051R 22192.91667824 -.00717420 00000+0 -41948-1 0 9992
L22 52548 53.2176 10.1630 0001384 92.2899 142.9052 15.13983435 9718

Live tracking and technical data element details for STARLINK-3931 (NORAD 52548). STARLINK-3931 can be tracked NOW for your location showing map with azimuth and elevation plus other details from your city location.

Track the satellite on the map from your city or location and see movement details for azimuth, elevation, latitude, longitude, range, height, and movement on the map or in text.







IsCatalogInMostPopularTable: catalog: 52548, numindb: 9
Update: records affected: 1



GetName: 52548 STARLINK-3931

Hit Count: updated at: Sun, 14 Aug 2022 01:38:07 GMT